• Em Portugal
  • Lista de países
  • Para 7 dias
  • Temperatura da água
  • Mapas de satélite
  • Mapa do tempo
  • Widgets de tempo
  • user-avatar
    Iniciar Sessão

    Previsão horária em Albani

    Hoje, 22 Outubro, Segunda-feira

    Tempo Temperatura Precipitação Vento Pressão Humidade
    00:00 +11°C° 0 mm 8 m/s 756 mmHg 72%
    01:00 +11°C° 0 mm 8 m/s 756 mmHg 72%
    02:00 +11°C° 0 mm 8 m/s 756 mmHg 73%
    03:00 +10°C° 0.1 mm 8 m/s 757 mmHg 74%
    04:00 +10°C° 0.1 mm 8 m/s 757 mmHg 75%
    05:00 +10°C° 0.1 mm 8 m/s 757 mmHg 75%
    06:00 +11°C° 0.1 mm 7 m/s 758 mmHg 72%
    07:00 +11°C° 0.1 mm 7 m/s 758 mmHg 69%
    08:00 +12°C° 0.1 mm 7 m/s 759 mmHg 65%
    09:00 +12°C° 0.1 mm 7 m/s 759 mmHg 63%
    10:00 +14°C° 0.1 mm 7 m/s 759 mmHg 60%
    11:00 +14°C° 0.1 mm 7 m/s 760 mmHg 57%
    12:00 +15°C° 0.1 mm 6 m/s 760 mmHg 57%
    13:00 +15°C° 0.1 mm 6 m/s 760 mmHg 57%
    14:00 +15°C° 0.1 mm 6 m/s 760 mmHg 57%
    15:00 +15°C° 0 mm 6 m/s 760 mmHg 59%
    16:00 +14°C° 0 mm 5 m/s 760 mmHg 60%
    17:00 +14°C° 0 mm 5 m/s 760 mmHg 61%
    18:00 +13°C° 0 mm 4 m/s 761 mmHg 65%
    19:00 +12°C° 0 mm 3 m/s 761 mmHg 69%
    20:00 +10°C° 0 mm 3 m/s 761 mmHg 74%
    21:00 +10°C° 0 mm 2 m/s 761 mmHg 75%
    22:00 +10°C° 0 mm 2 m/s 761 mmHg 76%
    23:00 +9°C° 0 mm 2 m/s 761 mmHg 77%

    Amanhã, 23 Outubro, Terça-feira

    Tempo Temperatura Precipitação Vento Pressão Humidade
    00:00 +9°C° 0 mm 2 m/s 761 mmHg 79%
    01:00 +8°C° 0 mm 2 m/s 761 mmHg 81%
    02:00 +8°C° 0 mm 2 m/s 761 mmHg 83%
    03:00 +8°C° 0 mm 2 m/s 761 mmHg 85%
    04:00 +8°C° 0 mm 2 m/s 761 mmHg 86%
    05:00 +8°C° 0 mm 2 m/s 761 mmHg 87%
    06:00 +9°C° 0 mm 3 m/s 761 mmHg 78%
    07:00 +11°C° 0 mm 3 m/s 761 mmHg 70%
    08:00 +13°C° 0 mm 3 m/s 761 mmHg 61%
    09:00 +14°C° 0 mm 3 m/s 761 mmHg 58%
    10:00 +16°C° 0 mm 3 m/s 760 mmHg 54%
    11:00 +17°C° 0 mm 3 m/s 760 mmHg 51%
    12:00 +17°C° 0 mm 3 m/s 760 mmHg 51%
    13:00 +18°C° 0 mm 3 m/s 759 mmHg 52%
    14:00 +18°C° 0 mm 3 m/s 759 mmHg 53%
    15:00 +18°C° 0 mm 2 m/s 758 mmHg 53%
    16:00 +19°C° 0 mm 2 m/s 758 mmHg 53%
    17:00 +19°C° 0 mm 2 m/s 758 mmHg 53%
    18:00 +17°C° 0 mm 2 m/s 758 mmHg 59%
    19:00 +16°C° 0 mm 2 m/s 758 mmHg 65%
    20:00 +14°C° 0 mm 2 m/s 758 mmHg 72%
    21:00 +13°C° 0 mm 2 m/s 758 mmHg 76%
    22:00 +13°C° 0 mm 2 m/s 758 mmHg 80%
    23:00 +12°C° 0 mm 1 m/s 758 mmHg 85%

    Depois de amanhã, 24 Outubro, Quarta-feira

    Tempo Temperatura Precipitação Vento Pressão Humidade
    00:00 +12°C° 0 mm 1 m/s 758 mmHg 85%
    01:00 +12°C° 0 mm 2 m/s 757 mmHg 86%
    02:00 +12°C° 0 mm 2 m/s 757 mmHg 87%
    03:00 +10°C° 0 mm 2 m/s 756 mmHg 88%
    04:00 +10°C° 0 mm 2 m/s 756 mmHg 89%
    05:00 +10°C° 0 mm 2 m/s 756 mmHg 89%
    06:00 +13°C° 0 mm 2 m/s 756 mmHg 82%
    07:00 +15°C° 0 mm 2 m/s 756 mmHg 75%
    08:00 +16°C° 0 mm 2 m/s 756 mmHg 68%
    09:00 +18°C° 0 mm 2 m/s 756 mmHg 62%
    10:00 +19°C° 0 mm 2 m/s 756 mmHg 57%
    11:00 +21°C° 0 mm 2 m/s 756 mmHg 51%
    12:00 +21°C° 0 mm 2 m/s 756 mmHg 52%
    13:00 +21°C° 0 mm 3 m/s 756 mmHg 52%
    14:00 +21°C° 0 mm 3 m/s 755 mmHg 53%
    15:00 +20°C° 0 mm 4 m/s 756 mmHg 58%
    16:00 +19°C° 0 mm 4 m/s 756 mmHg 63%
    17:00 +19°C° 0 mm 4 m/s 756 mmHg 69%
    18:00 +17°C° 0 mm 4 m/s 756 mmHg 76%
    19:00 +15°C° 0 mm 4 m/s 757 mmHg 83%
    20:00 +14°C° 0 mm 4 m/s 757 mmHg 90%
    21:00 +14°C° 0 mm 4 m/s 758 mmHg 90%
    22:00 +14°C° 0 mm 4 m/s 758 mmHg 89%
    23:00 +14°C° 0 mm 4 m/s 759 mmHg 89%

    25 Outubro, Quinta-feira

    Tempo Temperatura Precipitação Vento Pressão Humidade
    00:00 +14°C° 0 mm 3 m/s 759 mmHg 90%
    01:00 +15°C° 0 mm 2 m/s 758 mmHg 91%
    02:00 +14°C° 0 mm 2 m/s 758 mmHg 91%
    03:00 +13°C° 0 mm 3 m/s 758 mmHg 91%
    04:00 +13°C° 0 mm 3 m/s 759 mmHg 92%
    05:00 +13°C° 0 mm 4 m/s 759 mmHg 92%
    06:00 +14°C° 0 mm 4 m/s 759 mmHg 87%
    07:00 +17°C° 0 mm 4 m/s 759 mmHg 82%
    08:00 +18°C° 0 mm 4 m/s 760 mmHg 77%
    09:00 +19°C° 0 mm 4 m/s 759 mmHg 71%
    10:00 +20°C° 0 mm 4 m/s 759 mmHg 66%
    11:00 +21°C° 0 mm 4 m/s 759 mmHg 61%
    12:00 +21°C° 0 mm 4 m/s 759 mmHg 60%
    13:00 +21°C° 0 mm 4 m/s 759 mmHg 60%
    14:00 +21°C° 0 mm 4 m/s 758 mmHg 60%
    15:00 +20°C° 0 mm 4 m/s 758 mmHg 64%
    16:00 +20°C° 0 mm 4 m/s 759 mmHg 68%
    17:00 +19°C° 0 mm 5 m/s 759 mmHg 72%
    18:00 +17°C° 0 mm 4 m/s 759 mmHg 78%
    19:00 +16°C° 0 mm 3 m/s 760 mmHg 85%
    20:00 +14°C° 0 mm 2 m/s 760 mmHg 92%
    21:00 +14°C° 0 mm 2 m/s 760 mmHg 92%
    22:00 +13°C° 0 mm 2 m/s 760 mmHg 93%
    23:00 +13°C° 0 mm 1 m/s 759 mmHg 94%

    26 Outubro, Sexta-feira

    Tempo Temperatura Precipitação Vento Pressão Humidade
    00:00 +13°C° 0 mm 2 m/s 759 mmHg 93%
    01:00 +14°C° 0 mm 2 m/s 759 mmHg 92%
    02:00 +13°C° 0 mm 3 m/s 759 mmHg 92%
    03:00 +13°C° 0 mm 3 m/s 759 mmHg 90%
    04:00 +13°C° 0 mm 3 m/s 759 mmHg 88%
    05:00 +14°C° 0 mm 3 m/s 759 mmHg 87%
    06:00 +14°C° 0 mm 4 m/s 759 mmHg 82%
    07:00 +15°C° 0 mm 4 m/s 759 mmHg 78%
    08:00 +17°C° 0 mm 4 m/s 759 mmHg 73%
    09:00 +18°C° 0 mm 4 m/s 759 mmHg 68%
    10:00 +19°C° 0 mm 4 m/s 759 mmHg 62%
    11:00 +20°C° 0 mm 4 m/s 759 mmHg 56%
    12:00 +20°C° 0 mm 5 m/s 759 mmHg 55%
    13:00 +20°C° 0 mm 5 m/s 759 mmHg 55%
    14:00 +20°C° 0 mm 6 m/s 758 mmHg 54%
    15:00 +19°C° 0 mm 6 m/s 759 mmHg 62%
    16:00 +19°C° 0 mm 5 m/s 759 mmHg 69%
    17:00 +17°C° 0 mm 5 m/s 759 mmHg 77%
    18:00 +16°C° 0.1 mm 5 m/s 760 mmHg 82%
    19:00 +15°C° 0.1 mm 5 m/s 760 mmHg 86%
    20:00 +14°C° 0.1 mm 5 m/s 761 mmHg 91%
    21:00 +14°C° 0.1 mm 5 m/s 761 mmHg 90%
    22:00 +14°C° 0.1 mm 5 m/s 761 mmHg 89%
    23:00 +14°C° 0.1 mm 5 m/s 761 mmHg 87%

    27 Outubro, Sábado

    Tempo Temperatura Precipitação Vento Pressão Humidade
    00:00 +13°C° 0.1 mm 5 m/s 761 mmHg 87%
    01:00 +13°C° 0.1 mm 5 m/s 761 mmHg 86%
    02:00 +12°C° 0.1 mm 5 m/s 761 mmHg 85%
    03:00 +12°C° 0 mm 5 m/s 761 mmHg 83%
    04:00 +12°C° 0 mm 5 m/s 762 mmHg 82%
    05:00 +10°C° 0 mm 5 m/s 762 mmHg 80%
    06:00 +12°C° 0 mm 5 m/s 762 mmHg 76%
    07:00 +13°C° 0 mm 6 m/s 763 mmHg 71%
    08:00 +14°C° 0 mm 6 m/s 764 mmHg 66%
    09:00 +14°C° 0 mm 6 m/s 764 mmHg 64%
    10:00 +14°C° 0 mm 5 m/s 764 mmHg 62%
    11:00 +14°C° 0 mm 5 m/s 764 mmHg 60%
    12:00 +15°C° 0 mm 5 m/s 764 mmHg 58%
    13:00 +15°C° 0 mm 5 m/s 764 mmHg 56%
    14:00 +16°C° 0 mm 5 m/s 763 mmHg 54%
    15:00 +15°C° 0 mm 5 m/s 764 mmHg 56%
    16:00 +15°C° 0 mm 5 m/s 764 mmHg 57%
    17:00 +14°C° 0 mm 4 m/s 764 mmHg 58%
    18:00 +13°C° 0 mm 4 m/s 764 mmHg 63%
    19:00 +12°C° 0 mm 4 m/s 765 mmHg 68%
    20:00 +10°C° 0 mm 3 m/s 765 mmHg 74%
    21:00 +10°C° 0 mm 3 m/s 765 mmHg 76%
    22:00 +9°C° 0 mm 3 m/s 765 mmHg 78%
    23:00 +9°C° 0 mm 3 m/s 765 mmHg 80%
    Mostrar mais